Tiempo cada hora Abakonovo

Hoy, 23 Junio, Miércoles

Tiempo Temperatura Precipitaciones Viento Presión Humedad
00:00 +21°C° 0 mm 2 mps 746 mmHg 81%
01:00 +21°C° 0 mm 2 mps 746 mmHg 83%
02:00 +20°C° 0 mm 2 mps 747 mmHg 86%
03:00 +21°C° 0 mm 2 mps 747 mmHg 86%
04:00 +22°C° 0 mm 1 mps 747 mmHg 86%
05:00 +23°C° 0 mm 1 mps 747 mmHg 87%
06:00 +25°C° 0 mm 2 mps 747 mmHg 78%
07:00 +27°C° 0 mm 2 mps 747 mmHg 70%
08:00 +29°C° 0 mm 3 mps 747 mmHg 62%
09:00 +31°C° 0 mm 3 mps 747 mmHg 55%
10:00 +33°C° 0 mm 3 mps 747 mmHg 47%
11:00 +34°C° 0 mm 4 mps 747 mmHg 39%
12:00 +35°C° 0 mm 4 mps 747 mmHg 37%
13:00 +35°C° 0 mm 4 mps 747 mmHg 34%
14:00 +36°C° 0 mm 3 mps 747 mmHg 32%
15:00 +36°C° 0 mm 3 mps 747 mmHg 34%
16:00 +35°C° 0 mm 3 mps 747 mmHg 36%
17:00 +35°C° 0 mm 3 mps 747 mmHg 39%
18:00 +32°C° 0 mm 2 mps 747 mmHg 49%
19:00 +29°C° 0 mm 2 mps 747 mmHg 59%
20:00 +27°C° 0 mm 1 mps 746 mmHg 70%
21:00 +26°C° 0 mm 1 mps 747 mmHg 72%
22:00 +25°C° 0 mm 1 mps 747 mmHg 75%
23:00 +24°C° 0 mm 1 mps 747 mmHg 78%

Mañana, 24 Junio, Jueves

Tiempo Temperatura Precipitaciones Viento Presión Humedad
00:00 +23°C° 0 mm 1 mps 747 mmHg 80%
01:00 +23°C° 0 mm 1 mps 747 mmHg 82%
02:00 +22°C° 0 mm 1 mps 747 mmHg 84%
03:00 +23°C° 0 mm 1 mps 747 mmHg 84%
04:00 +23°C° 0 mm 1 mps 747 mmHg 83%
05:00 +24°C° 0 mm 1 mps 747 mmHg 82%
06:00 +26°C° 0 mm 1 mps 747 mmHg 74%
07:00 +28°C° 0 mm 1 mps 747 mmHg 66%
08:00 +30°C° 0 mm 2 mps 747 mmHg 58%
09:00 +31°C° 0 mm 2 mps 747 mmHg 53%
10:00 +34°C° 0 mm 2 mps 747 mmHg 47%
11:00 +35°C° 0 mm 2 mps 747 mmHg 41%
12:00 +36°C° 0 mm 2 mps 746 mmHg 37%
13:00 +36°C° 0 mm 3 mps 746 mmHg 34%
14:00 +37°C° 0 mm 3 mps 746 mmHg 30%
15:00 +36°C° 0 mm 3 mps 746 mmHg 33%
16:00 +36°C° 0 mm 3 mps 745 mmHg 35%
17:00 +35°C° 0 mm 3 mps 745 mmHg 38%
18:00 +33°C° 0 mm 3 mps 745 mmHg 48%
19:00 +29°C° 0 mm 2 mps 745 mmHg 59%
20:00 +27°C° 0 mm 2 mps 745 mmHg 69%
21:00 +25°C° 0.3 mm 1 mps 745 mmHg 76%
22:00 +24°C° 0.3 mm 1 mps 745 mmHg 82%
23:00 +23°C° 0.3 mm 1 mps 745 mmHg 88%

Pasado mañana, 25 Junio, Viernes

Tiempo Temperatura Precipitaciones Viento Presión Humedad
00:00 +22°C° 0.1 mm 1 mps 745 mmHg 90%
01:00 +22°C° 0.1 mm 1 mps 745 mmHg 91%
02:00 +22°C° 0.1 mm 1 mps 745 mmHg 93%
03:00 +22°C° 0 mm 1 mps 745 mmHg 92%
04:00 +23°C° 0 mm 2 mps 745 mmHg 92%
05:00 +23°C° 0 mm 2 mps 744 mmHg 91%
06:00 +25°C° 0 mm 2 mps 744 mmHg 82%
07:00 +27°C° 0 mm 2 mps 744 mmHg 73%
08:00 +29°C° 0 mm 3 mps 744 mmHg 64%
09:00 +31°C° 0 mm 3 mps 744 mmHg 57%
10:00 +33°C° 0 mm 3 mps 744 mmHg 50%
11:00 +35°C° 0 mm 3 mps 744 mmHg 43%
12:00 +33°C° 0.4 mm 4 mps 744 mmHg 49%
13:00 +30°C° 0.4 mm 4 mps 743 mmHg 55%
14:00 +28°C° 0.4 mm 4 mps 742 mmHg 60%
15:00 +26°C° 1.9 mm 3 mps 742 mmHg 68%
16:00 +24°C° 1.9 mm 2 mps 742 mmHg 75%
17:00 +23°C° 1.9 mm 1 mps 743 mmHg 82%
18:00 +22°C° 0.5 mm 1 mps 743 mmHg 86%
19:00 +21°C° 0.5 mm 2 mps 743 mmHg 90%
20:00 +20°C° 0.5 mm 2 mps 743 mmHg 93%
21:00 +20°C° 0.8 mm 2 mps 743 mmHg 94%
22:00 +19°C° 0.8 mm 2 mps 743 mmHg 96%
23:00 +19°C° 0.8 mm 2 mps 743 mmHg 97%

26 Junio, Sábado

Tiempo Temperatura Precipitaciones Viento Presión Humedad
00:00 +19°C° 0 mm 2 mps 743 mmHg 97%
01:00 +19°C° 0 mm 2 mps 742 mmHg 97%
02:00 +20°C° 0 mm 1 mps 742 mmHg 97%
03:00 +20°C° 0 mm 1 mps 742 mmHg 96%
04:00 +21°C° 0 mm 1 mps 742 mmHg 96%
05:00 +21°C° 0 mm 1 mps 742 mmHg 95%
06:00 +23°C° 0 mm 1 mps 742 mmHg 87%
07:00 +24°C° 0 mm 2 mps 742 mmHg 78%
08:00 +26°C° 0 mm 2 mps 742 mmHg 70%
09:00 +28°C° 0 mm 2 mps 742 mmHg 63%
10:00 +29°C° 0 mm 3 mps 742 mmHg 56%
11:00 +31°C° 0 mm 3 mps 742 mmHg 49%
12:00 +33°C° 0 mm 3 mps 742 mmHg 46%
13:00 +33°C° 0 mm 3 mps 742 mmHg 43%
14:00 +34°C° 0 mm 3 mps 742 mmHg 40%
15:00 +33°C° 0 mm 3 mps 742 mmHg 43%
16:00 +33°C° 0 mm 3 mps 742 mmHg 46%
17:00 +31°C° 0 mm 3 mps 742 mmHg 49%
18:00 +29°C° 0 mm 2 mps 742 mmHg 58%
19:00 +27°C° 0 mm 2 mps 742 mmHg 67%
20:00 +25°C° 0 mm 1 mps 742 mmHg 76%
21:00 +24°C° 0 mm 1 mps 742 mmHg 79%
22:00 +23°C° 0 mm 1 mps 742 mmHg 82%
23:00 +22°C° 0 mm 1 mps 742 mmHg 85%

27 Junio, Domingo

Tiempo Temperatura Precipitaciones Viento Presión Humedad
00:00 +22°C° 0 mm 1 mps 742 mmHg 88%
01:00 +21°C° 0 mm 1 mps 742 mmHg 90%
02:00 +21°C° 0 mm 1 mps 742 mmHg 93%
03:00 +21°C° 0 mm 1 mps 743 mmHg 92%
04:00 +20°C° 0 mm 0 mps 743 mmHg 90%
05:00 +20°C° 0 mm 0 mps 743 mmHg 89%
06:00 +22°C° 0 mm 0 mps 743 mmHg 81%
07:00 +24°C° 0 mm 0 mps 743 mmHg 74%
08:00 +26°C° 0 mm 0 mps 743 mmHg 66%
09:00 +27°C° 0 mm 0 mps 743 mmHg 60%
10:00 +29°C° 0 mm 0 mps 743 mmHg 53%
11:00 +32°C° 0 mm 1 mps 743 mmHg 47%
12:00 +33°C° 0 mm 1 mps 743 mmHg 45%
13:00 +33°C° 0 mm 1 mps 743 mmHg 44%
14:00 +33°C° 0 mm 1 mps 743 mmHg 43%
15:00 +31°C° 0.2 mm 1 mps 742 mmHg 51%
16:00 +29°C° 0.2 mm 2 mps 742 mmHg 58%
17:00 +28°C° 0.2 mm 3 mps 742 mmHg 66%
18:00 +25°C° 2.8 mm 2 mps 742 mmHg 76%
19:00 +23°C° 2.8 mm 2 mps 742 mmHg 86%
20:00 +21°C° 2.8 mm 1 mps 743 mmHg 96%
21:00 +21°C° 1 mm 1 mps 742 mmHg 96%
22:00 +20°C° 1 mm 2 mps 742 mmHg 96%
23:00 +19°C° 1 mm 2 mps 742 mmHg 96%

28 Junio, Lunes

Tiempo Temperatura Precipitaciones Viento Presión Humedad
00:00 +20°C° 0 mm 1 mps 742 mmHg 96%
01:00 +20°C° 0 mm 1 mps 742 mmHg 96%
02:00 +18°C° 0 mm 0 mps 742 mmHg 96%
03:00 +18°C° 0 mm 0 mps 742 mmHg 96%
04:00 +19°C° 0 mm 0 mps 742 mmHg 95%
05:00 +19°C° 0 mm 0 mps 742 mmHg 95%
06:00 +23°C° 0 mm 1 mps 742 mmHg 87%
07:00 +24°C° 0 mm 1 mps 742 mmHg 80%
08:00 +26°C° 0 mm 2 mps 742 mmHg 72%
09:00 +28°C° 0 mm 2 mps 742 mmHg 65%
10:00 +29°C° 0 mm 2 mps 742 mmHg 58%
11:00 +31°C° 0 mm 2 mps 741 mmHg 50%
12:00 +31°C° 0 mm 2 mps 741 mmHg 49%
13:00 +32°C° 0 mm 2 mps 741 mmHg 48%
14:00 +33°C° 0 mm 3 mps 741 mmHg 47%
15:00 +31°C° 0.7 mm 3 mps 740 mmHg 54%
16:00 +29°C° 0.7 mm 2 mps 740 mmHg 61%
17:00 +28°C° 0.7 mm 2 mps 740 mmHg 68%
18:00 +26°C° 1.5 mm 2 mps 740 mmHg 76%
19:00 +24°C° 1.5 mm 2 mps 740 mmHg 84%
20:00 +22°C° 1.5 mm 1 mps 740 mmHg 92%
21:00 +22°C° 0.7 mm 1 mps 740 mmHg 94%
22:00 +21°C° 0.7 mm 1 mps 740 mmHg 95%
23:00 +21°C° 0.7 mm 1 mps 740 mmHg 96%
Mostrar más

Necesitamos Su Consentimiento

Meteoprog y nuestros Proveedores de Servicios pueden almacenar y acceder a sus datos personales como cookies, identificadores de dispositivo u otras tecnologías similares de su dispositivo y procesar dichos datos para personalizar contenido y anuncios, además de ofrecer funciones de redes sociales y analizar el tráfico.

  • Almacenar y/o acceder a información en su dispositivo

    Se puede almacenar o acceder a cookies, identificadores de dispositivo u otra información de su dispositivo para los fines anteriormente indicados.

  • Anuncios y contenido personalizados, medición de anuncios y contenido, percepciones del público, y desarrollo de productos

    Los anuncios y el contenido pueden personalizarse en base a su perfil. Se pueden añadir más datos para personalizar mejor los anuncios y contenidos. Se puede medir el rendimiento de los anuncios y contenidos. Se puede obtener la percepción sobre el público que ha visto los anuncios y contenidos. Dichos datos pueden usarse para desarrollar o mejorar la experiencia del usuario, sistemas y software.

Al hacer clic en ‘Estoy De Acuerdo’ usted permitirá el uso de las cookies, identificadores de dispositivo, balizas web u otras tecnologías similares indicadas. Su configuración puede cambiarse desde el navegador de su dispositivo.

Para ciertos fines, los intereses legítimos pueden ser considerados por encima del consentimiento. Puede leer más sobre ello en nuestra Política de Privacidad y Cookies.